Airfield :
LOGIN :

Register | Disclaimer

   EN    FR    IT 

 










Legend :    VFR   Marginal VFR   IFR   Intensive IFR   Very Intensive IFR
Visi :
Ceiling :
>= 8 km
>= 3000ft
5 to 8 km
1000 to 3000 ft
1500m to 5 km
500 to 1000 ft
800 to 1500m
200 to 500 ft
< 800m
< 200 ft
Symbols :   Thunderstorms  Fog  Heavy snow  Heavy precipitations  Wind > 20 kt
SIGMETs :     Misc.  Thunderstorms  Icing  Turbulence  Mountain Waves  Volcanic Ashes







- Airport Elevation : 776 ft
- IATA code : RMS


ETAR - Ramstein Air Base

CURRENT METAR :
  • 220356Z 00000KT 9999 CLR 03/03 A3011 RMK AO2A SLP201 T00320031

EXPIRED METARs :
  • 220256Z 00000KT 9999 SCT170 04/04 A3011 RMK AO2A SLP201 T00430042 55003
  • 220156Z AUTO 00000KT 9999 OVC170 05/05 A3011 RMK AO2 SLP200 T00480047

TAF TAF ETAR
Valid from the 22 at 02:00 until the 23 at 08:00 UTC


220206Z 2202/2308 VRB06KT 9999 SCT100 QNH3011INS
BECMG 2301/2302 31006KT 9999 SCT020 BKN040 QNH3020INS TX19/2215Z TN02/2204Z
No reported NOTAMs for that airfield.



MET'MAP, your aeronautical weather chart ! - Copyright ORBIFLY December 2007 - Disclaimer

ORBIFLY MET'MAP TEAM :

Programming & Development : Alexandra Zaïnal
Concept & Development : Baudouin d'Aumeries
Co-Development & Prog : Marc-Olivier Méhu
Technical & hardware support : Manuel Goepfert

Contact : metmap@orbifly.com




SOURCES & CREDITS :

   NOAA